| time (UTC) | temp F | wind direction | speed MPH | gust MPH | rain 1hr in | rain 24hr in | rain mn in | humidity % | barometer mb |
| 20260510063005 | 56 | 182 | 9.0 | 18.0 | 0.00 | 1.02 | 0.01 | 91 | 1002.8 |
| 20260510062005 | 56 | 180 | 7.0 | 12.0 | 0.00 | 1.04 | 0.01 | 89 | 1002.6 |
| 20260510061005 | 56 | 167 | 6.0 | 10.0 | 0.00 | 1.07 | 0.01 | 91 | 1002.3 |
| 20260510060005 | 56 | 160 | 6.0 | 10.0 | 0.00 | 1.09 | 0.01 | 91 | 1002.2 |
| 20260510055005 | 55 | 164 | 6.0 | 9.0 | 0.00 | 1.11 | 0.01 | 94 | 1002.2 |
| 20260510054004 | 55 | 127 | 8.0 | 10.0 | 0.00 | 1.11 | 0.01 | 94 | 1002.2 |
| 20260510053004 | 55 | 134 | 5.0 | 8.0 | 0.00 | 1.11 | 0.01 | 96 | 1002.2 |
| 20260510052005 | 55 | 171 | 4.0 | 7.0 | 0.00 | 1.11 | 0.01 | 95 | 1002.0 |
| 20260510051006 | 55 | 138 | 2.0 | 8.0 | 0.00 | 1.11 | 0.01 | 94 | 1002.0 |
| 20260510044006 | 56 | 194 | 7.0 | 12.0 | 0.00 | 1.11 | 0.01 | 95 | 1002.0 |
| 20260510043006 | 56 | 201 | 3.0 | 10.0 | 0.00 | 1.11 | 0.01 | 96 | 1001.8 |
| 20260510041006 | 56 | 137 | 6.0 | 13.0 | 0.00 | 1.13 | 0.01 | 95 | 1001.7 |
| 20260510040006 | 56 | 146 | 9.0 | 12.0 | 0.00 | 1.17 | 0.01 | 94 | 1001.6 |
| 20260510035006 | 56 | 151 | 8.0 | 9.0 | 0.00 | 1.17 | 0.01 | 91 | 1001.6 |
| 20260510034006 | 56 | 193 | 8.0 | 10.0 | 0.00 | 1.21 | 0.01 | 92 | 1001.7 |
| 20260510033005 | 55 | 193 | 6.0 | 10.0 | 0.00 | 1.21 | 0.01 | 93 | 1001.6 |
| 20260510032005 | 55 | 158 | 6.0 | 10.0 | 0.00 | 1.21 | 0.01 | 96 | 1001.7 |
| 20260510030006 | 55 | 179 | 8.0 | 12.0 | 0.00 | 1.21 | 0.01 | 99 | 1001.7 |
| 20260510025006 | 54 | 160 | 6.0 | 9.0 | 0.00 | 1.21 | 0.01 | 99 | 1001.7 |
| 20260510024005 | 54 | 180 | 3.0 | 8.0 | 0.00 | 1.21 | 0.01 | 99 | 1001.7 |
| 20260510023006 | 54 | 130 | 6.0 | 10.0 | 0.00 | 1.21 | 0.01 | 99 | 1001.8 |
| 20260510022006 | 55 | 158 | 7.0 | 10.0 | 0.00 | 1.21 | 0.01 | 99 | 1001.9 |
| 20260510021006 | 55 | 158 | 9.0 | 13.0 | 0.00 | 1.21 | 0.01 | 99 | 1001.8 |
| 20260510020005 | 55 | 149 | 5.0 | 10.0 | 0.00 | 1.21 | 0.01 | 99 | 1001.9 |
| 20260510015006 | 55 | 136 | 6.0 | 12.0 | 0.00 | 1.21 | 0.01 | 99 | 1001.9 |
| 20260510014005 | 55 | 196 | 9.0 | 14.0 | 0.00 | 1.21 | 0.01 | 99 | 1002.2 |
| 20260510013005 | 55 | 180 | 8.0 | 10.0 | 0.00 | 1.21 | 0.01 | 99 | 1002.1 |
| 20260510012005 | 55 | 160 | 6.0 | 10.0 | 0.00 | 1.21 | 0.01 | 99 | 1002.3 |
| 20260510011005 | 55 | 147 | 5.0 | 10.0 | 0.00 | 1.21 | 0.01 | 99 | 1002.4 |
| 20260510010006 | 55 | 190 | 4.0 | 8.0 | 0.00 | 1.21 | 0.01 | 99 | 1002.5 |
| 20260510005006 | 55 | 191 | 7.0 | 9.0 | 0.00 | 1.21 | 0.01 | 99 | 1002.5 |
| 20260510004005 | 55 | 163 | 5.0 | 10.0 | 0.00 | 1.21 | 0.01 | 99 | 1002.6 |
| 20260510003005 | 55 | 159 | 6.0 | 13.0 | 0.00 | 1.21 | 0.01 | 99 | 1002.7 |
| 20260510002005 | 56 | 149 | 6.0 | 12.0 | 0.00 | 1.22 | 0.01 | 99 | 1002.9 |
| 20260510001006 | 56 | 180 | 9.0 | 12.0 | 0.00 | 1.22 | 0.01 | 99 | 1002.7 |
| 20260510000005 | 56 | 174 | 7.0 | 9.0 | 0.01 | 1.22 | 0.01 | 99 | 1002.8 |
| 20260509234005 | 55 | 169 | 4.0 | 6.0 | 0.25 | 1.22 | 0.01 | 99 | 1002.9 |
| 20260509233005 | 55 | 178 | 1.0 | 2.0 | 0.38 | 1.22 | 0.01 | 99 | 1003.0 |
| 20260509232005 | 55 | 177 | 0.0 | 3.0 | 0.73 | 1.22 | 0.01 | 99 | 1002.8 |
| 20260509231005 | 54 | 166 | 2.0 | 9.0 | 0.80 | 1.22 | 0.01 | 99 | 1003.0 |
| 20260509230007 | 54 | 162 | 6.0 | 10.0 | 0.80 | 1.21 | 0.00 | 99 | 1003.2 |
| 20260509223005 | 54 | 179 | 5.0 | 16.0 | 0.43 | 0.84 | 0.84 | 96 | 1003.3 |
| 20260509222006 | 58 | 178 | 3.0 | 14.0 | 0.14 | 0.55 | 0.55 | 97 | 1003.1 |
| 20260509221005 | 59 | 155 | 5.0 | 9.0 | 0.02 | 0.43 | 0.43 | 91 | 1002.8 |
| 20260509220005 | 59 | 204 | 7.0 | 10.0 | 0.00 | 0.41 | 0.41 | 87 | 1002.8 |
| 20260509215005 | 59 | 183 | 6.0 | 13.0 | 0.00 | 0.41 | 0.41 | 85 | 1002.7 |
| 20260509214006 | 59 | 158 | 8.0 | 10.0 | 0.00 | 0.41 | 0.41 | 85 | 1002.6 |
| 20260509212006 | 59 | 117 | 6.0 | 9.0 | 0.00 | 0.43 | 0.41 | 85 | 1002.5 |
| 20260509211006 | 59 | 174 | 6.0 | 10.0 | 0.00 | 0.44 | 0.41 | 85 | 1002.4 |
| 20260509210005 | 59 | 169 | 7.0 | 9.0 | 0.00 | 0.45 | 0.41 | 85 | 1002.2 |
| 20260509205005 | 59 | 173 | 7.0 | 10.0 | 0.00 | 0.46 | 0.41 | 85 | 1002.1 |
| 20260509204005 | 59 | 198 | 4.0 | 8.0 | 0.00 | 0.47 | 0.41 | 85 | 1002.0 |
| 20260509203005 | 60 | 178 | 6.0 | 8.0 | 0.00 | 0.47 | 0.41 | 85 | 1001.8 |
| 20260509202005 | 60 | 182 | 6.0 | 9.0 | 0.00 | 0.48 | 0.41 | 85 | 1001.7 |
| 20260509201006 | 60 | 179 | 5.0 | 10.0 | 0.00 | 0.48 | 0.41 | 87 | 1001.5 |
| 20260509200005 | 60 | 177 | 7.0 | 10.0 | 0.00 | 0.48 | 0.41 | 87 | 1001.4 |
| 20260509195005 | 61 | 180 | 3.0 | 9.0 | 0.00 | 0.48 | 0.41 | 87 | 1001.3 |
| 20260509194006 | 61 | 169 | 2.0 | 9.0 | 0.00 | 0.48 | 0.41 | 87 | 1001.3 |
| 20260509193005 | 61 | 193 | 5.0 | 8.0 | 0.00 | 0.48 | 0.41 | 88 | 1001.2 |
| 20260509192005 | 61 | 181 | 6.0 | 9.0 | 0.00 | 0.48 | 0.41 | 85 | 1001.0 |
| 20260509191006 | 62 | 175 | 7.0 | 9.0 | 0.00 | 0.48 | 0.41 | 84 | 1000.8 |
| 20260509190006 | 62 | 171 | 6.0 | 9.0 | 0.00 | 0.48 | 0.41 | 83 | 1000.6 |
| 20260509185005 | 62 | 197 | 6.0 | 9.0 | 0.00 | 0.48 | 0.41 | 82 | 1000.6 |
| 20260509184005 | 62 | 173 | 7.0 | 10.0 | 0.00 | 0.48 | 0.41 | 83 | 1000.6 |
| 20260509183005 | 63 | 206 | 7.0 | 10.0 | 0.00 | 0.48 | 0.41 | 80 | 1000.4 |
| 20260509182005 | 61 | 191 | 9.0 | 13.0 | 0.00 | 0.48 | 0.41 | 82 | 1000.5 |
| 20260509180005 | 61 | 197 | 9.0 | 13.0 | 0.00 | 0.48 | 0.41 | 82 | 1000.2 |
| 20260509175006 | 62 | 180 | 6.0 | 10.0 | 0.00 | 0.48 | 0.41 | 76 | 1000.2 |
| 20260509174005 | 63 | 182 | 5.0 | 10.0 | 0.02 | 0.48 | 0.41 | 78 | 1000.2 |
| 20260509173005 | 61 | 190 | 6.0 | 8.0 | 0.04 | 0.48 | 0.41 | 80 | 1000.2 |
| 20260509172005 | 61 | 174 | 5.0 | 8.0 | 0.05 | 0.48 | 0.41 | 80 | 999.9 |
| 20260509171005 | 59 | 158 | 6.0 | 9.0 | 0.05 | 0.48 | 0.41 | 88 | 1000.0 |
| 20260509170005 | 59 | 184 | 5.0 | 10.0 | 0.05 | 0.48 | 0.41 | 92 | 999.9 |
| 20260509165005 | 59 | 185 | 5.0 | 12.0 | 0.05 | 0.48 | 0.41 | 95 | 1000.2 |
| 20260509164006 | 59 | 177 | 9.0 | 12.0 | 0.03 | 0.46 | 0.39 | 93 | 1000.3 |
| 20260509163005 | 59 | 179 | 6.0 | 9.0 | 0.01 | 0.44 | 0.37 | 88 | 999.9 |
| 20260509162005 | 59 | 248 | 7.0 | 16.0 | 0.00 | 0.43 | 0.36 | 82 | 999.9 |
| 20260509160005 | 59 | 238 | 6.0 | 12.0 | 0.01 | 0.43 | 0.36 | 81 | 999.3 |
| 20260509155007 | 61 | 224 | 5.0 | 8.0 | 0.01 | 0.43 | 0.36 | 84 | 999.1 |
| 20260509154111 | 62 | 191 | 7.0 | 10.0 | 0.01 | 0.43 | 0.36 | 84 | 998.9 |
| 20260509153009 | 61 | 197 | 7.0 | 13.0 | 0.01 | 0.43 | 0.36 | 84 | 998.6 |
| 20260509152006 | 61 | 180 | 10.0 | 15.0 | 0.01 | 0.43 | 0.36 | 86 | 998.4 |
| 20260509151005 | 61 | 248 | 12.0 | 16.0 | 0.00 | 0.42 | 0.35 | 80 | 998.3 |
| 20260509150005 | 64 | 180 | 12.0 | 21.0 | 0.00 | 0.42 | 0.35 | 79 | 998.3 |
| 20260509145005 | 65 | 205 | 16.0 | 21.0 | 0.02 | 0.42 | 0.35 | 74 | 998.2 |
| 20260509143005 | 65 | 180 | 11.0 | 14.0 | 0.10 | 0.42 | 0.35 | 79 | 998.2 |
| 20260509142005 | 63 | 202 | 9.0 | 16.0 | 0.10 | 0.42 | 0.35 | 81 | 998.3 |
| 20260509140006 | 63 | 188 | 7.0 | 10.0 | 0.10 | 0.42 | 0.35 | 85 | 998.0 |
| 20260509135005 | 63 | 217 | 6.0 | 15.0 | 0.08 | 0.40 | 0.33 | 83 | 998.0 |
| 20260509132005 | 68 | 195 | 12.0 | 16.0 | 0.00 | 0.32 | 0.25 | 57 | 997.5 |
| 20260509131005 | 70 | 202 | 11.0 | 17.0 | 0.00 | 0.32 | 0.25 | 56 | 997.6 |
| 20260509124005 | 70 | 212 | 12.0 | 17.0 | 0.00 | 0.32 | 0.25 | 56 | 997.3 |
| 20260509122005 | 71 | 202 | 10.0 | 15.0 | 0.00 | 0.32 | 0.25 | 54 | 997.2 |
| 20260509121005 | 70 | 187 | 14.0 | 18.0 | 0.00 | 0.32 | 0.25 | 54 | 997.4 |
| 20260509115005 | 68 | 194 | 16.0 | 16.0 | 0.00 | 0.32 | 0.25 | 61 | 997.3 |
| 20260509114005 | 68 | 164 | 12.0 | 16.0 | 0.00 | 0.32 | 0.25 | 63 | 997.2 |
| 20260509113005 | 68 | 202 | 16.0 | 17.0 | 0.00 | 0.32 | 0.25 | 62 | 997.2 |
| 20260509112005 | 66 | 195 | 11.0 | 14.0 | 0.00 | 0.32 | 0.25 | 67 | 997.1 |
| 20260509111005 | 65 | 197 | 10.0 | 17.0 | 0.00 | 0.32 | 0.25 | 67 | 996.8 |
| 20260509110005 | 66 | 200 | 12.0 | 15.0 | 0.00 | 0.32 | 0.25 | 64 | 996.6 |
| 20260509105005 | 69 | 200 | 11.0 | 17.0 | 0.00 | 0.32 | 0.25 | 61 | 996.6 |
| 20260509104005 | 66 | 189 | 7.0 | 13.0 | 0.00 | 0.32 | 0.25 | 68 | 996.7 |
| 20260509103004 | 66 | 208 | 8.0 | 12.0 | 0.00 | 0.32 | 0.25 | 69 | 996.7 |
| 20260509102005 | 65 | 190 | 10.0 | 15.0 | 0.00 | 0.32 | 0.25 | 69 | 996.5 |
| 20260509094005 | 67 | 138 | 8.0 | 14.0 | 0.00 | 0.32 | 0.25 | 67 | 996.3 |
| 20260509093005 | 66 | 168 | 8.0 | 9.0 | 0.00 | 0.32 | 0.25 | 71 | 996.5 |
| 20260509092004 | 66 | 158 | 7.0 | 15.0 | 0.00 | 0.32 | 0.25 | 70 | 996.5 |
| 20260509091005 | 65 | 141 | 6.0 | 12.0 | 0.00 | 0.32 | 0.25 | 74 | 996.6 |
| 20260509090005 | 66 | 193 | 3.0 | 8.0 | 0.01 | 0.32 | 0.25 | 78 | 996.5 |
| 20260509085004 | 63 | 163 | 6.0 | 9.0 | 0.01 | 0.32 | 0.25 | 81 | 996.5 |
| 20260509083005 | 61 | 150 | 9.0 | 10.0 | 0.02 | 0.32 | 0.25 | 88 | 996.5 |
| 20260509082004 | 60 | 90 | 5.0 | 8.0 | 0.02 | 0.32 | 0.25 | 92 | 996.5 |
| 20260509081005 | 60 | 138 | 2.0 | 6.0 | 0.03 | 0.32 | 0.25 | 92 | 996.7 |
| 20260509080004 | 59 | 147 | 3.0 | 9.0 | 0.03 | 0.31 | 0.24 | 97 | 996.9 |
| 20260509075005 | 58 | 100 | 1.0 | 7.0 | 0.03 | 0.31 | 0.24 | 99 | 996.9 |
| 20260509074005 | 57 | 90 | 1.0 | 2.0 | 0.03 | 0.31 | 0.24 | 99 | 996.9 |
| 20260509073004 | 57 | 143 | 1.0 | 7.0 | 0.03 | 0.30 | 0.23 | 98 | 997.0 |
| 20260509072004 | 57 | 80 | 3.0 | 10.0 | 0.05 | 0.30 | 0.23 | 96 | 997.0 |
| 20260509071005 | 57 | 159 | 8.0 | 10.0 | 0.07 | 0.29 | 0.22 | 94 | 997.0 |
| 20260509070005 | 57 | 178 | 5.0 | 10.0 | 0.08 | 0.28 | 0.21 | 96 | 996.9 |
| 20260509065005 | 57 | 126 | 7.0 | 9.0 | 0.10 | 0.28 | 0.21 | 97 | 996.9 |
| 20260509064004 | 57 | 124 | 7.0 | 13.0 | 0.10 | 0.28 | 0.21 | 97 | 996.9 |